Location: Home
(42.5358°N, 72.7383°W)
Time: 03:26:27
(UTC-04:00)

S-56A Canister/Altair - Visible Passes

Search period start: 28 September 2022 00:00
Search period end: 08 October 2022 00:00
Orbit: 637 x 2496 km, 38.9° (Epoch: 26 September)

Date Brightness Start Highest point End Pass type
(mag) Time Alt. Az. Time Alt. Az. Time Alt. Az.
28 Sep 10.7 02:09:40 12° E 02:09:40 12° E 02:10:18 10° E visible
28 Sep 8.7 04:07:05 50° S 04:08:04 53° SSE 04:14:13 10° E visible
28 Sep 8.1 06:04:38 10° W 06:12:03 63° S 06:17:11 10° ESE visible
29 Sep 9.0 03:36:07 49° SE 03:36:07 49° SE 03:41:51 10° E visible
29 Sep 8.2 05:33:32 18° WSW 05:39:25 65° S 05:44:53 10° E visible
30 Sep 9.5 03:05:08 37° ESE 03:05:08 37° ESE 03:09:26 10° E visible
30 Sep 8.3 05:02:33 30° WSW 05:06:44 67° S 05:12:34 10° E visible
01 Oct 10.1 02:34:09 25° E 02:34:09 25° E 02:36:58 10° E visible
01 Oct 8.4 04:31:34 47° WSW 04:34:00 67° S 04:40:14 10° E visible
02 Oct 10.6 02:03:10 16° E 02:03:10 16° E 02:04:28 10° E visible
02 Oct 8.6 04:00:35 65° SSW 04:01:11 67° S 04:07:53 10° E visible
02 Oct 8.4 05:58:00 12° W 06:05:16 56° SSW 06:10:39 10° ESE visible
03 Oct 8.9 03:29:36 60° SE 03:29:36 60° SE 03:35:30 10° E visible
03 Oct 8.4 05:27:02 22° W 05:32:37 60° SSW 05:38:24 10° ESE visible
04 Oct 9.5 02:58:39 41° ESE 02:58:39 41° ESE 03:03:04 10° E visible
04 Oct 8.5 04:56:04 35° W 04:59:55 65° S 05:06:06 10° ESE visible
05 Oct 10.2 02:27:43 27° E 02:27:43 27° E 02:30:36 10° E visible
05 Oct 8.5 04:25:08 54° WSW 04:27:07 68° S 04:33:47 10° ESE visible
05 Oct 8.9 06:23:38 10° W 06:30:43 35° SSW 06:35:49 10° SSE visible
06 Oct 10.7 01:56:49 16° E 01:56:49 16° E 01:58:04 10° E visible
06 Oct 8.6 03:54:14 70° S 03:54:16 70° S 04:01:25 10° ESE visible
06 Oct 8.8 05:51:40 15° W 05:58:10 41° SSW 06:03:43 10° SE visible
07 Oct 9.1 03:23:23 56° ESE 03:23:23 56° ESE 03:29:01 10° E visible
07 Oct 8.8 05:20:49 25° W 05:25:32 47° SSW 05:31:34 10° SE visible
